Home   Weather   Long Beach   Past weeks

Flag for USA Past Weather in Long Beach, California, USA — Yesterday and Last 2 Weeks

Now
76 °F

Sunny.


Feels Like: 78 °F
Forecast: 67 / 78 °F
Wind: No wind

Location: Long Beach Airport

Current Time: Jul 22, 2017 at 11:59:30 am

Latest Report: Jul 22, 2017 at 10:53 am


Visibility: 10 mi

Pressure: 29.91 "Hg

Humidity: 69%

Dew Point: 65 °F

Location of Long BeachLocation

Past Weather in Long Beach — Graph

°F

Long Beach Temperature Yesterday

Maximum temperature yesterday: 83 °F (at 4:53 pm)
Minimum temperature yesterday: 69 °F (at 1:18 am)
Average temperature yesterday: 73 °F

High & Low Weather Summary for the Past Weeks

 TemperatureHumidityPressure
High88 °F (Jul 7, 3:53 pm)87% (Jul 9, 3:53 am)30.02 "Hg (Jul 9, 3:53 am)
Low65 °F (Jul 14, 4:53 am)33% (Jul 8, 6:53 pm)29.78 "Hg (Jul 8, 6:53 pm)
Average74 °F70%29.92 "Hg
* Reported Jul 7 10:53 am — Jul 22 10:22 am, Long Beach. Weather by CustomWeather, © 2017

Note: Actual official high and low records may vary slightly from our data, if they occured in-between our weather recording intervals... More about our weather records

Advertising

Long Beach Weather History for the Previous 24 Hours

Scroll right to see more
 ConditionsComfort  
Time TempWeatherWind HumidityBarometerVisibility
10:22 am
Sat, Jul 22
77 °FSunny.8 mph66%29.92 "Hg10 mi
9:53 am76 °FSunny.N/A67%29.92 "Hg9 mi
9:38 am75 °FSunny.6 mph69%29.92 "Hg9 mi
9:02 am74 °FScattered clouds.6 mph71%29.93 "Hg9 mi
8:53 am72 °FPartly sunny.3 mph76%29.93 "Hg8 mi
7:53 am70 °FOvercast.5 mph81%29.92 "Hg8 mi
6:53 am70 °FOvercast.No wind79%29.90 "Hg8 mi
5:53 am69 °FOvercast.No wind81%29.90 "Hg9 mi
4:53 am69 °FOvercast.No wind81%29.90 "Hg9 mi
3:53 am69 °FOvercast.3 mph81%29.90 "Hg10 mi
3:29 am69 °FOvercast.3 mph84%29.90 "Hg9 mi
3:14 am69 °FLow clouds.No wind84%29.90 "Hg8 mi
2:53 am69 °FOvercast.3 mph84%29.90 "Hg8 mi
1:53 am69 °FOvercast.6 mph84%29.90 "Hg9 mi
1:37 am69 °FPassing clouds.5 mph87%29.91 "Hg9 mi
12:53 am70 °FClear.3 mph84%29.90 "Hg9 mi
11:53 pm
Fri, Jul 21
70 °FClear.No wind79%29.90 "Hg10 mi
10:53 pm70 °FClear.3 mph81%29.90 "Hg10 mi
9:53 pm71 °FClear.6 mph78%29.90 "Hg10 mi
8:53 pm72 °FClear.7 mph73%29.88 "Hg10 mi
7:53 pm74 °FSunny.9 mph71%29.87 "Hg10 mi
6:53 pm77 °FSunny.10 mph66%29.86 "Hg10 mi
5:53 pm80 °FSunny.7 mph58%29.86 "Hg10 mi
4:53 pm83 °FSunny.10 mph51%29.87 "Hg10 mi
3:53 pm82 °FSunny.8 mph53%29.88 "Hg10 mi
2:53 pm79 °FSunny.10 mph58%29.90 "Hg10 mi
1:53 pm77 °FSunny.10 mph62%29.93 "Hg10 mi
12:53 pm76 °FSunny.9 mph64%29.96 "Hg10 mi
11:53 am76 °FSunny.9 mph64%29.96 "Hg10 mi
Weather by CustomWeather, © 2017

See weather overviewHow to use our weather pages